User: anonymous   Login
Location: Oshawa
(43.9000°N, 78.8670°W)
Time: 20:18:20
(UTC-04:00)
Language:

Cosmos 1821 Rocket - Orbit

View from above orbital plane
View from above orbital plane
View from above satellite
View from above satellite

Ground track
Ground track

The orbit data is extracted from the following two-line orbital elements,

1 17526U 87017B   15185.54922279  .00000161  00000-0  14736-3 0  9996
2 17526 082.9013 213.4650 0041146 150.5111 317.5402 13.76759610408152
Epoch (UTC): 04 July 2015 13:10:52
Eccentricity: 0.0041146
inclination: 82.9013°
perigee height: 945 km
apogee height: 1005 km
right ascension of ascending node: 213.4650°
argument of perigee: 150.5111°
revolutions per day: 13.76759610
mean anomaly at epoch: 317.5402°
orbit number at epoch: 40815

The dashed part of the orbit path shows where the satellite is in the earth's shadow,  

DLR